Location: Dealu Mare
(46.0500°N, 22.8167°E)
Time: 23:13:54
(UTC+00:00)

ARIANE 5 R/B - Pass Details

Date: 15 January 2026
Orbit: 746 x 793 km, 98.8° (Epoch: 13 February)

Event Time Altitude Azimuth Distance (km) Brightness Sun altitude
Rises 05:01:13 0° 17° (NNE) 3,270 5.7 -11.2°
Reaches altitude 10° 05:03:35 10° 20° (NNE) 2,331 5.0 -10.8°
Maximum altitude 05:08:41 64° 102° (ESE) 847 3.0 -10.0°
Drops below altitude 10° 05:13:41 10° 184° (S) 2,283 5.2 -9.2°
Sets 05:15:58 0° 188° (S) 3,197 5.9 -8.8°
